QPF
0.03 0.00 0.00 0.00 0.00 0.00 0.00 0.01 0.01 0.00 0.01 0.00 0.00 0.00 0.00 0.00 0.00 0.00 0.00 0.00 0.00 0.00 0.00 0.00 0.00 0.00 0.00 0.01 0.01 0.00 0.00 0.00 0.00
0.06 0.00 0.00 0.00 0.00 0.01 0.01 0.01 0.01 0.02 0.03 0.03 0.00 0.00 0.00 0.00 0.00 0.00 0.00 0.00 0.00 0.00 0.00 0.00 0.00 0.00 0.00 0.01 0.01 0.00 0.00 0.00 0.00
0.03 0.03 0.00 0.00 0.00 0.01 0.00 0.00 0.00 0.02 0.05 0.08 0.02 0.00 0.00 0.00 0.00 0.00 0.00 0.00 0.00 0.00 0.00 0.00 0.00 0.00 0.00 0.01 0.01 0.00 0.00 0.00 0.00
0.03 0.02 0.01 0.01 0.00 0.00 0.00 0.00 0.00 0.01 0.07 0.10 0.04 0.00 0.00 0.01 0.00 0.00 0.00 0.00 0.00 0.01 0.00 0.01 0.00 0.00 0.01 0.02 0.01 0.00 0.00 0.00 0.00
0.03 0.02 0.00 0.02 0.00 0.00 0.00 0.00 0.00 0.01 0.05 0.06 0.03 0.00 0.00 0.01 0.00 0.00 0.00 0.00 0.00 0.00 0.00 0.00 0.01 0.01 0.02 0.03 0.01 0.00 0.00 0.00 0.00
0.01 0.00 0.00 0.05 0.03 0.01 0.00 0.00 0.00 0.00 0.00 0.01 0.01 0.00 0.00 0.00 0.00 0.00 0.00 0.00 0.00 0.00 0.01 0.00 0.00 0.00 0.00 0.00 0.00 0.01 0.00 0.00 0.00
0.10 0.08 0.01 0.03 0.04 0.07 0.02 0.00 0.00 0.00 0.00 0.00 0.00 0.00 0.00 0.00 0.01 0.01 0.00 0.00 0.00 0.01 0.05 0.01 0.00 0.00 0.00 0.00 0.00 0.00 0.01 0.01 0.00
0.14 0.11 0.04 0.01 0.01 0.00 0.00 0.00 0.00 0.00 0.00 0.00 0.00 0.00 0.00 0.00 0.01 0.00 0.00 0.00 0.00 0.00 0.06 0.01 0.00 0.00 0.00 0.00 0.00 0.00 0.01 0.00 0.01
0.06 0.09 0.12 0.09 0.03 0.00 0.00 0.00 0.00 0.00 0.00 0.00 0.00 0.00 0.00 0.00 0.00 0.00 0.00 0.00 0.01 0.00 0.06 0.01 0.00 0.00 0.00 0.00 0.00 0.00 0.01 0.00 0.01
0.01 0.03 0.10 0.12 0.11 0.06 0.00 0.00 0.00 0.00 0.00 0.00 0.00 0.00 0.00 0.00 0.00 0.02 0.00 0.00 0.03 0.05 0.01 0.00 0.00 0.00 0.00 0.00 0.00 0.00 0.00 0.01 0.01
0.00 0.00 0.03 0.09 0.12 0.13 0.08 0.01 0.00 0.00 0.00 0.00 0.00 0.00 0.00 0.00 0.00 0.01 0.01 0.00 0.00 0.05 0.06 0.00 0.00 0.00 0.00 0.00 0.00 0.00 0.00 0.01 0.01
0.00 0.00 0.02 0.06 0.11 0.15 0.12 0.04 0.01 0.01 0.00 0.00 0.00 0.00 0.00 0.00 0.00 0.00 0.03 0.01 0.00 0.00 0.05 0.02 0.00 0.01 0.00 0.00 0.00 0.00 0.00 0.00 0.00
0.00 0.01 0.01 0.02 0.05 0.12 0.15 0.05 0.01 0.01 0.00 0.00 0.00 0.00 0.00 0.00 0.00 0.00 0.01 0.03 0.02 0.00 0.00 0.06 0.06 0.03 0.01 0.00 0.00 0.00 0.00 0.00 0.00
0.00 0.00 0.01 0.01 0.02 0.03 0.07 0.08 0.03 0.01 0.00 0.00 0.00 0.00 0.00 0.00 0.00 0.00 0.01 0.01 0.02 0.02 0.00 0.00 0.03 0.07 0.06 0.02 0.00 0.00 0.00 0.00 0.00
0.00 0.00 0.00 0.00 0.00 0.01 0.03 0.04 0.03 0.02 0.02 0.01 0.00 0.00 0.00 0.00 0.00 0.00 0.00 0.01 0.01 0.00 0.00 0.00 0.00 0.02 0.05 0.07 0.02 0.00 0.00 0.00 0.00
0.00 0.00 0.00 0.00 0.00 0.00 0.00 0.00 0.01 0.02 0.02 0.01 0.01 0.00 0.00 0.00 0.00 0.00 0.00 0.00 0.00 0.00 0.00 0.00 0.00 0.00 0.01 0.05 0.06 0.01 0.00 0.00 0.00
0.00 0.00 0.00 0.00 0.00 0.00 0.00 0.00 0.00 0.00 0.01 0.00 0.00 0.00 0.00 0.00 0.00 0.00 0.00 0.00 0.00 0.00 0.00 0.00 0.00 0.00 0.01 0.01 0.02 0.02 0.00 0.00 0.00
0.00 0.00 0.00 0.00 0.00 0.00 0.00 0.00 0.00 0.00 0.00 0.01 0.01 0.00 0.00 0.00 0.00 0.00 0.00 0.00 0.00 0.00 0.00 0.00 0.00 0.00 0.01 0.01 0.01 0.00 0.00 0.00 0.00
0.00 0.00 0.00 0.00 0.00 0.00 0.00 0.00 0.00 0.00 0.00 0.00 0.00 0.00 0.00 0.00 0.00 0.00 0.00 0.00 0.00 0.00 0.00 0.00 0.00 0.00 0.01 0.01 0.01 0.00 0.00 0.00 0.00
0.00 0.00 0.00 0.00 0.00 0.00 0.00 0.00 0.00 0.00 0.00 0.00 0.00 0.00 0.00 0.00 0.00 0.00 0.00 0.00 0.00 0.00 0.00 0.00 0.00 0.00 0.00 0.01 0.01 0.00 0.00 0.00 0.00
MSLP
1018.21 1018.33 1018.32 1018.51 1018.63 1018.69 1018.75 1018.92 1019.07 1019.10 1019.20 1019.32 1019.51 1019.51 1019.34 1019.16 1018.76 1019.09 1019.30 1019.39 1020.02 1020.10 1020.13 1020.11 1020.27 1020.25 1020.40 1020.54 1020.61 1020.76 1020.87 1020.98 1021.10
1018.33 1018.46 1018.58 1018.68 1018.80 1018.94 1018.94 1018.98 1019.17 1019.32 1019.39 1019.35 1019.55 1019.67 1019.49 1019.07 1018.81 1019.07 1019.38 1019.92 1020.17 1020.30 1020.35 1020.40 1020.50 1020.56 1020.64 1020.86 1020.95 1021.09 1021.24 1021.36 1021.57
1018.62 1018.64 1018.76 1018.78 1018.87 1019.03 1019.16 1019.16 1019.27 1019.41 1019.56 1019.44 1019.62 1019.77 1019.72 1019.11 1018.86 1019.22 1019.56 1020.24 1020.29 1020.40 1020.51 1020.62 1020.77 1020.81 1020.92 1021.15 1021.21 1021.40 1021.56 1021.73 1021.96
1018.76 1018.81 1018.91 1019.02 1018.99 1019.04 1019.28 1019.38 1019.38 1019.43 1019.55 1019.67 1019.82 1019.99 1019.74 1019.72 1019.31 1019.21 1019.77 1020.42 1020.44 1020.49 1020.64 1020.79 1020.94 1021.00 1021.18 1021.37 1021.49 1021.64 1021.84 1021.96 1022.28
1018.73 1018.88 1019.00 1019.05 1019.10 1019.18 1019.23 1019.42 1019.53 1019.54 1019.56 1019.77 1019.90 1020.14 1020.11 1019.41 1019.52 1019.42 1020.03 1020.51 1020.54 1020.68 1020.83 1020.83 1021.06 1021.22 1021.39 1021.61 1021.81 1021.99 1022.16 1022.25 1022.54
1018.52 1018.65 1018.87 1019.06 1019.22 1019.28 1019.38 1019.47 1019.62 1019.71 1019.73 1019.78 1019.89 1020.26 1019.83 1019.03 1019.04 1019.44 1020.19 1020.59 1020.61 1020.78 1020.95 1020.99 1021.12 1021.38 1021.52 1021.79 1022.04 1022.27 1022.46 1022.52 1022.77
1018.58 1018.50 1018.82 1018.97 1019.13 1019.28 1019.48 1019.60 1019.67 1019.79 1019.21 1019.69 1020.23 1019.92 1019.13 1018.62 1018.88 1019.69 1020.15 1020.42 1020.58 1020.82 1020.99 1021.13 1021.15 1021.46 1021.69 1021.93 1022.09 1022.41 1022.56 1022.79 1023.00
1019.36 1018.93 1018.83 1018.93 1019.13 1019.06 1019.30 1019.53 1019.59 1019.32 1018.81 1018.44 1019.24 1019.37 1018.70 1018.26 1018.60 1019.45 1020.27 1020.20 1020.30 1020.69 1021.03 1021.16 1021.36 1021.51 1021.69 1021.96 1022.11 1022.37 1022.73 1022.94 1023.22
1021.16 1020.50 1019.27 1018.77 1018.46 1018.72 1018.67 1018.79 1019.10 1019.22 1018.67 1018.23 1018.05 1018.18 1018.20 1018.06 1018.36 1019.21 1020.21 1020.16 1020.15 1020.32 1020.84 1021.11 1021.37 1021.57 1021.72 1021.91 1022.10 1022.44 1022.83 1023.01 1023.38
1022.27 1021.55 1020.71 1019.28 1018.64 1018.31 1018.13 1018.39 1018.54 1018.87 1018.86 1018.41 1018.20 1017.95 1017.78 1017.87 1018.05 1018.71 1019.84 1020.14 1020.06 1020.21 1020.48 1020.76 1021.16 1021.50 1021.68 1021.81 1022.07 1022.39 1022.73 1023.04 1023.35
1023.18 1022.57 1021.55 1020.81 1019.05 1018.36 1017.99 1017.85 1018.24 1018.81 1019.08 1019.03 1018.49 1018.02 1017.90 1017.80 1017.89 1018.26 1019.18 1019.85 1019.89 1020.10 1020.28 1020.60 1020.81 1021.14 1021.47 1021.74 1021.94 1022.24 1022.57 1022.96 1023.26
1024.30 1023.56 1022.58 1022.09 1021.29 1019.69 1018.01 1017.74 1017.75 1018.20 1018.54 1018.66 1018.42 1017.96 1017.82 1017.72 1017.78 1018.03 1018.57 1019.23 1019.61 1019.82 1020.02 1020.16 1020.54 1020.81 1021.12 1021.48 1021.80 1022.07 1022.34 1022.72 1023.12
1024.70 1024.50 1023.36 1022.75 1021.77 1020.88 1018.06 1017.69 1017.60 1017.63 1017.95 1018.09 1017.92 1017.67 1017.64 1017.62 1017.44 1017.74 1017.97 1018.65 1018.78 1019.36 1019.72 1019.82 1020.09 1020.42 1020.81 1021.09 1021.48 1021.91 1022.23 1022.47 1022.84
1024.70 1024.56 1023.78 1023.25 1022.28 1020.98 1019.80 1017.44 1017.64 1017.19 1017.14 1017.43 1017.53 1017.42 1017.45 1017.49 1017.44 1017.33 1017.62 1017.85 1018.40 1018.70 1019.12 1019.53 1019.72 1020.04 1020.39 1020.59 1021.02 1021.50 1021.98 1022.34 1022.61
1024.96 1024.42 1024.22 1023.42 1022.68 1021.77 1021.39 1019.20 1018.86 1017.27 1016.73 1017.27 1017.16 1017.05 1017.04 1017.24 1017.34 1017.35 1017.38 1017.59 1017.84 1018.00 1018.09 1018.68 1019.19 1019.67 1019.96 1020.24 1020.54 1020.90 1021.41 1021.99 1022.33
1025.17 1024.47 1024.14 1023.84 1023.28 1022.93 1021.14 1020.84 1019.85 1017.85 1017.51 1016.81 1017.56 1017.15 1016.77 1016.82 1017.16 1017.19 1017.12 1017.14 1017.26 1017.56 1017.43 1017.68 1018.25 1018.85 1019.44 1019.72 1020.07 1020.34 1020.83 1021.44 1021.99
1025.60 1025.01 1024.41 1024.01 1023.47 1022.90 1022.22 1022.33 1021.01 1019.50 1017.53 1017.18 1017.45 1017.67 1017.21 1016.52 1016.59 1016.78 1016.77 1016.70 1016.72 1016.71 1016.83 1016.99 1017.42 1017.84 1018.47 1019.04 1019.49 1020.03 1020.27 1020.84 1021.40
1026.01 1025.44 1024.88 1024.27 1024.01 1023.43 1022.95 1022.29 1021.93 1021.20 1019.63 1018.40 1016.64 1016.54 1016.64 1016.27 1015.86 1015.98 1016.16 1016.12 1016.08 1016.19 1016.21 1016.40 1016.65 1017.07 1017.66 1018.25 1018.85 1019.57 1019.84 1020.27 1020.67
1026.38 1025.79 1025.20 1024.65 1024.17 1023.70 1023.27 1022.63 1022.40 1021.81 1020.74 1019.26 1017.03 1016.17 1015.23 1015.77 1015.62 1015.15 1015.15 1015.32 1015.34 1015.37 1015.60 1015.78 1015.99 1016.34 1016.84 1017.45 1018.04 1018.71 1019.51 1019.71 1020.02
1026.60 1026.06 1025.46 1024.92 1024.34 1023.77 1023.32 1022.87 1022.52 1022.20 1021.95 1020.62 1019.49 1017.68 1016.20 1014.98 1015.66 1014.80 1014.56 1014.46 1014.42 1014.47 1014.53 1014.78 1015.30 1015.65 1015.97 1016.58 1017.19 1017.79 1018.48 1019.01 1019.45
Thickness
5694 5695 5697 5698 5698 5699 5700 5701 5702 5704 5704 5704 5705 5706 5708 5711 5714 5713 5712 5712 5708 5708 5708 5708 5707 5707 5706 5704 5702 5700 5698 5697 5695
5692 5693 5693 5694 5695 5694 5696 5698 5699 5700 5701 5701 5702 5703 5706 5709 5712 5711 5710 5708 5706 5706 5706 5706 5705 5705 5704 5702 5700 5698 5696 5694 5692
5687 5689 5689 5690 5691 5692 5692 5694 5695 5696 5697 5699 5699 5700 5702 5707 5710 5708 5707 5704 5704 5704 5704 5703 5702 5702 5701 5699 5698 5696 5693 5691 5689
5684 5685 5685 5685 5687 5688 5688 5689 5690 5691 5693 5694 5695 5695 5699 5701 5704 5706 5703 5701 5701 5702 5702 5701 5700 5700 5699 5697 5695 5694 5691 5689 5686
5680 5681 5682 5682 5683 5683 5684 5684 5685 5687 5687 5689 5691 5692 5693 5698 5699 5701 5699 5697 5698 5698 5698 5699 5698 5697 5696 5694 5692 5690 5688 5687 5684
5675 5677 5678 5678 5678 5678 5679 5680 5680 5681 5683 5685 5686 5686 5690 5697 5698 5697 5695 5693 5694 5694 5693 5694 5695 5693 5692 5691 5688 5686 5684 5683 5681
5668 5670 5671 5673 5673 5673 5673 5673 5675 5676 5681 5680 5680 5682 5689 5695 5696 5693 5691 5690 5690 5690 5690 5690 5691 5689 5688 5687 5686 5683 5681 5679 5677
5658 5663 5663 5664 5666 5669 5669 5669 5670 5673 5678 5684 5680 5680 5687 5693 5693 5689 5686 5687 5688 5686 5686 5686 5685 5685 5685 5684 5683 5681 5678 5676 5673
5642 5648 5655 5660 5661 5662 5665 5667 5667 5668 5674 5679 5682 5684 5686 5689 5689 5685 5681 5682 5684 5684 5682 5682 5681 5681 5681 5680 5680 5677 5675 5673 5670
5626 5634 5641 5650 5656 5659 5662 5662 5664 5664 5666 5670 5675 5679 5682 5684 5686 5684 5678 5678 5680 5679 5680 5680 5678 5676 5676 5677 5676 5674 5671 5670 5667
5611 5618 5626 5634 5646 5651 5656 5658 5657 5656 5657 5659 5665 5671 5674 5678 5680 5680 5676 5675 5676 5675 5676 5675 5676 5674 5673 5672 5672 5671 5669 5666 5665
5595 5601 5610 5616 5625 5636 5648 5651 5652 5652 5652 5654 5658 5662 5666 5670 5673 5674 5673 5671 5672 5672 5672 5673 5671 5670 5670 5669 5668 5668 5666 5664 5661
5581 5585 5595 5601 5610 5618 5639 5644 5647 5650 5648 5650 5653 5657 5659 5663 5667 5668 5669 5668 5670 5668 5667 5668 5668 5667 5667 5666 5665 5663 5662 5661 5659
5567 5572 5581 5587 5595 5607 5615 5637 5637 5643 5645 5646 5648 5651 5653 5654 5657 5661 5662 5665 5664 5665 5664 5663 5664 5664 5664 5664 5662 5660 5658 5656 5656
5550 5557 5563 5574 5579 5590 5593 5611 5616 5633 5637 5632 5638 5643 5646 5646 5649 5651 5654 5656 5659 5661 5664 5662 5661 5660 5660 5660 5659 5658 5656 5653 5651
5534 5541 5547 5553 5563 5568 5582 5587 5598 5616 5622 5622 5618 5627 5637 5640 5640 5641 5645 5650 5653 5654 5659 5660 5658 5658 5656 5656 5655 5655 5653 5650 5647
5510 5519 5527 5533 5543 5552 5560 5563 5573 5588 5609 5609 5610 5607 5616 5629 5632 5634 5638 5643 5645 5650 5653 5656 5655 5655 5654 5652 5652 5650 5649 5646 5644
5486 5494 5503 5512 5518 5528 5536 5546 5552 5561 5576 5588 5606 5604 5606 5612 5622 5626 5630 5636 5640 5642 5646 5649 5651 5650 5650 5648 5648 5645 5645 5642 5641
5461 5469 5477 5486 5495 5504 5512 5523 5530 5542 5553 5568 5590 5599 5609 5604 5607 5620 5625 5629 5633 5638 5640 5642 5645 5645 5645 5644 5643 5642 5638 5638 5637
5429 5439 5451 5460 5470 5480 5490 5500 5508 5519 5526 5542 5555 5571 5590 5601 5595 5605 5612 5621 5628 5634 5638 5639 5638 5639 5640 5639 5639 5640 5636 5634 5633